#timestamp,LO_Frequency,Hit,StdDev 
1597150815.7,286047000.9,N
1597150835.5,286047001.2,N
1597150855.3,286046998.2,N
1597150875.2,286046998.7,N
1597150895.9,286047001.1,N
1597150915.7,286047000.0,N
1597150935.6,286046999.8,N
1597150955.4,286047000.4,N
1597150975.2,286047000.3,N
1597150995.1,286046999.9,N
1597150996.0,286046999.9,N
1597151015.8,286047002.7,N
1597151035.7,286046999.9,N
1597151055.5,286047000.2,N
1597151075.3,286047002.8,N
1597151095.2,286047000.1,N
1597151115.0,286047000.5,N
1597151115.9,286047000.5,N
1597151135.8,286047000.0,N
1597151155.6,286047000.4,N
1597151175.4,286047000.2,N
1597151195.3,286047002.3,N
1597151215.1,286047000.2,N
1597151235.9,286046999.7,N
1597151255.7,286046999.7,N
1597151275.5,286047002.5,N
1597151295.4,286047002.3,N
1597151315.2,286047002.6,N
1597151335.0,286047002.7,N
1597151335.9,286047002.7,N
1597151355.8,286047000.1,N
1597151375.6,286047000.5,N
1597151395.5,286046998.2,N
1597151415.3,286046998.7,N
1597151435.1,286047001.1,N
1597151455.9,286047000.4,N
1597151475.7,286047001.2,N
1597151495.5,286046999.9,N
1597151515.4,286047004.2,Y
1597151535.2,286047001.8,P
1597151555.1,286047003.2,P
1597151556.0,286047003.2,P
1597151575.8,286047002.2,N
1597151595.6,286047001.6,N
1597151615.5,286046999.7,N
1597151635.3,286047000.2,N
1597151655.2,286046999.9,N
1597151675.9,286047002.3,N
1597151695.7,286047002.7,N
1597151715.6,286047002.1,N
1597151735.4,286047003.0,N
1597151755.2,286047003.5,N
1597151775.1,286047002.7,N
1597151776.0,286047002.7,N
1597151795.8,286047002.6,N
1597151815.7,286047002.4,N
1597151835.5,286047000.8,N
1597151855.3,286046998.6,N
1597151875.2,286046998.3,N
1597151895.0,286046996.6,N
1597151895.9,286046996.6,N
1597151915.8,286046999.2,N
1597151935.6,286046999.0,N
1597151955.4,286046999.3,N
1597151975.3,286046996.5,N
1597151995.1,286046999.0,N
1597152015.8,286046998.9,N
1597152035.7,286046999.3,N
1597152055.5,286047000.8,N
1597152075.3,286047000.9,N
1597152095.2,286046998.2,N
1597152115.0,286047000.1,N
1597152115.9,286047000.1,N
1597152135.8,286047000.6,N
1597152155.6,286047000.5,N
1597152175.4,286047002.6,N
1597152195.3,286047002.6,N
1597152215.1,286047002.8,N
1597152235.8,286047002.3,N
1597152255.7,286047002.4,N
1597152275.5,286047001.9,N
1597152295.4,286047001.5,N
1597152315.2,286047001.9,N
1597152335.0,286047002.1,N
1597152335.9,286047002.1,N
1597152355.8,286047001.9,N
1597152375.6,286047002.2,N
1597152395.4,286047004.1,N
1597152415.3,286047003.1,N
1597152435.1,286047004.0,N
1597152455.9,286047002.1,N
1597152475.7,286047002.2,N
1597152495.5,286047001.2,N
1597152515.4,286046998.7,N
1597152535.2,286046998.1,N
1597152555.1,286047001.1,N
1597152556.0,286047001.1,N
1597152575.8,286047001.0,N
1597152595.6,286047000.0,N
1597152615.5,286047000.3,N
1597152635.3,286047000.7,N
1597152655.1,286047000.7,N
1597152675.9,286047001.0,N
1597152695.7,286047000.6,N
1597152715.6,286046998.6,N
1597152735.4,286046999.0,N
1597152755.2,286046996.9,N
1597152775.1,286046999.5,N
1597152776.0,286046999.5,N
1597152795.8,286046996.7,N
1597152815.6,286046996.9,N
1597152835.5,286046996.6,N
1597152855.3,286046997.8,N
1597152875.2,286046995.7,N
1597152895.9,286046995.7,N
1597152915.7,286046993.8,N
1597152935.6,286046994.4,N
1597152955.4,286046993.8,N
1597152975.2,286046996.3,N
1597152995.1,286046996.1,N
1597152996.0,286046996.1,N
1597153015.8,286046994.2,N
1597153035.7,286046992.3,Y
1597153055.5,286046996.0,P
1597153075.3,286046996.1,P
1597153095.2,286046995.0,P
1597153115.0,286046998.0,N
1597153115.9,286046998.0,N
1597153135.7,286046997.4,N
1597153155.6,286046998.0,N
1597153175.4,286046996.1,Y
1597153195.3,286047001.2,P
1597153215.1,286047001.2,N
1597153216.0,286047001.2,N
1597153235.8,286046998.2,N
1597153255.7,286047001.1,N
1597153275.5,286046998.1,N
1597153295.4,286047000.8,N
1597153315.2,286046998.6,N
1597153335.0,286046998.1,N
1597153335.9,286046998.1,N
1597153355.8,286047000.8,N
1597153375.6,286047001.0,N
1597153395.4,286047000.8,N
1597153415.3,286047000.6,N
1597153435.1,286047001.0,N
1597153455.8,286047000.0,N
1597153475.7,286047001.1,N
1597153495.5,286047001.1,N
1597153515.4,286047000.1,N
1597153535.2,286046999.9,N
1597153555.0,286047000.1,N
1597153555.9,286047000.1,N
1597153575.8,286047002.3,N
1597153595.6,286047000.3,N
1597153615.5,286047002.5,N
1597153635.3,286047002.5,N
1597153655.1,286047002.6,N
1597153675.9,286047001.5,N
1597153695.7,286047002.0,N
1597153715.5,286047001.4,N
1597153735.4,286047001.8,N
1597153755.2,286047001.6,N
1597153775.1,286047001.9,N
1597153776.0,286047001.9,N
1597153795.8,286047001.3,N
1597153815.6,286047001.8,N
1597153835.5,286047002.6,N
1597153855.3,286047001.5,N
1597153875.1,286046999.7,N
1597153895.9,286047001.8,N
1597153915.7,286047001.6,N
1597153935.6,286047001.8,N
1597153955.4,286047001.8,N
1597153975.2,286047001.5,N
1597153995.1,286047004.1,Y
1597153996.0,286047004.1,P
1597154015.8,286047001.9,N
1597154035.7,286047002.6,N
1597154055.5,286047002.0,N
1597154075.3,286047001.8,N
1597154095.2,286047002.3,N
1597154115.0,286047002.2,N
1597154115.9,286047002.2,N
1597154135.8,286047002.5,Y
1597154155.6,286046998.4,P
1597154175.4,286046998.3,N
1597154195.3,286047001.1,N
1597154215.1,286046998.3,N
1597154235.8,286046998.6,N
1597154255.7,286046998.7,N
1597154275.5,286047001.2,N
1597154295.4,286046998.3,N
1597154315.2,286046999.1,N
1597154335.0,286046999.5,N
1597154335.9,286046999.5,N
1597154355.8,286046999.4,N
1597154375.6,286046998.7,N
1597154395.5,286046998.7,N
